Martinsburg, WV

10:11 AM EST on January 22, 2018 (GMT -0500)
Eastern W Va Regional-Shepherd

Weather History for KMRB - January, 2012

Change the Weather History Date:

Monday, January 30, 2012

  Actual Average Record
Temperature  
Mean Temperature 35 °F 31 °F  
Max Temperature 44 °F 40 °F 70 °F (1947)
Min Temperature 25 °F 23 °F -2 °F (2014)
Degree Days  
Heating Degree Days 30 34  
Month to date heating degree days 871 1020  
Since 1 July heating degree days 2493 3046  
Cooling Degree Days 0 0  
Month to date cooling degree days 0 0  
Year to date cooling degree days 0 0  
Moisture  
Dew Point 17 °F    
Average Humidity 53    
Maximum Humidity 78    
Minimum Humidity 27    
Precipitation  
Precipitation 0.00 in 0.08 in 1.49 in (2013)
Month to date precipitation 2.07 2.35  
Year to date precipitation 2.07 2.35  
Sea Level Pressure  
Sea Level Pressure 30.28 in    
Wind  
Wind Speed 6 mph (SW)    
Max Wind Speed 18 mph    
Max Gust Speed 24 mph    
Visibility 10 miles    
Events      
T = Trace of Precipitation, MM = Missing Value Source: NWS Daily Summary

Daily Weather History Graph

Daily Weather History Graph

Search for Another Location

Airport or City:

Trip Planner

Search our weather history database for the weather conditions in past years. The results will help you decide how hot, cold, wet, or windy it might be!

Date:

Astronomy

Jan. 30, 2012 Rise Set
Actual Time 7:21 AM EST 5:29 PM EST
Civil Twilight 6:52 AM EST 5:57 PM EST
Nautical Twilight 6:20 AM EST 6:30 PM EST
Astronomical Twilight 5:49 AM EST 7:01 PM EST
Moon 10:45 AM EST (1/30) 12:09 AM EST (1/30)
Length of Visible Light 11h 05m
Length of Day
10h 08m
Waxing Crescent, 46% of the Moon is Illuminated
Jan 30
Waxing Crescent
Jan 30
First Quarter
Feb 7
Full
Feb 14
Last Quarter
Feb 21
New

Hourly Weather History & Observations

Time (EST) Temp. Windchill Dew Point Humidity Pressure Visibility Wind Dir Wind Speed Gust Speed Precip Events Conditions
12:53 AM 33.1 °F 25.5 °F 19.9 °F 59% 30.20 in 10.0 mi WNW 9.2 mph 20.7 mph N/A   Mostly Cloudy
1:53 AM 32.0 °F 25.6 °F 19.0 °F 59% 30.22 in 10.0 mi WNW 6.9 mph - N/A   Mostly Cloudy
2:53 AM 30.9 °F 21.7 °F 19.0 °F 61% 30.24 in 10.0 mi West 11.5 mph - N/A   Partly Cloudy
3:53 AM 30.9 °F 20.2 °F 17.1 °F 57% 30.25 in 10.0 mi West 15.0 mph - N/A   Clear
4:53 AM 30.0 °F 20.5 °F 16.0 °F 56% 30.27 in 10.0 mi West 11.5 mph - N/A   Clear
5:53 AM 26.1 °F 19.4 °F 16.0 °F 66% 30.30 in 10.0 mi SW 5.8 mph - N/A   Clear
6:53 AM 27.0 °F 21.6 °F 15.1 °F 61% 30.33 in 10.0 mi SW 4.6 mph - N/A   Clear
7:53 AM 26.1 °F 20.5 °F 15.1 °F 63% 30.37 in 10.0 mi SSW 4.6 mph - N/A   Clear
8:53 AM 30.0 °F 26.5 °F 16.0 °F 56% 30.38 in 10.0 mi Variable 3.5 mph - N/A   Clear
9:53 AM 32.0 °F 23.6 °F 19.9 °F 61% 30.38 in 10.0 mi WSW 10.4 mph - N/A   Clear
10:53 AM 34.0 °F 26.0 °F 19.0 °F 54% 30.40 in 10.0 mi WSW 10.4 mph - N/A   Clear
11:53 AM 37.0 °F 29.8 °F 18.0 °F 46% 30.38 in 10.0 mi WSW 10.4 mph - N/A   Clear
12:53 PM 39.0 °F 32.8 °F 15.1 °F 38% 30.34 in 10.0 mi SW 9.2 mph - N/A   Clear
1:53 PM 42.1 °F 38.4 °F 12.9 °F 31% 30.31 in 10.0 mi Variable 5.8 mph - N/A   Clear
2:53 PM 42.8 °F 39.3 °F 10.4 °F 27% 30.28 in 10.0 mi SSW 5.8 mph - N/A   Partly Cloudy
3:53 PM 43.0 °F 38.8 °F 14.0 °F 31% 30.28 in 10.0 mi SSE 6.9 mph - N/A   Overcast
4:53 PM 44.1 °F 41.5 °F 12.9 °F 28% 30.27 in 10.0 mi SSE 4.6 mph - N/A   Mostly Cloudy
5:53 PM 37.9 °F 35.5 °F 16.0 °F 41% 30.26 in 10.0 mi SE 3.5 mph - N/A   Clear
6:53 PM 37.0 °F - 14.0 °F 39% 30.27 in 10.0 mi Calm Calm - N/A   Mostly Cloudy
7:53 PM 37.0 °F - 16.0 °F 42% 30.25 in 10.0 mi Calm Calm - N/A   Scattered Clouds
8:53 PM 32.0 °F 28.7 °F 19.9 °F 61% 30.23 in 10.0 mi SW 3.5 mph - N/A   Clear
9:53 PM 34.0 °F - 18.0 °F 52% 30.22 in 10.0 mi Calm Calm - N/A   Partly Cloudy
10:53 PM 36.0 °F 30.3 °F 19.0 °F 50% 30.20 in 10.0 mi South 6.9 mph - N/A   Clear
11:53 PM 41.0 °F 38.0 °F 21.0 °F 45% 30.18 in 10.0 mi SSW 4.6 mph - N/A   Clear